Location: Newark
(50.1395°N, 5.5234°W)
Time: 16:18:36
(UTC+00:00)

N. Korean satellite - Visible Passes

Search period start: 08 March 2021 00:00
Search period end: 18 March 2021 00:00
Orbit: 451 x 502 km, 97.2° (Epoch: 07 March)

Date Brightness Start Highest point End Pass type
(mag) Time Alt. Az. Time Alt. Az. Time Alt. Az.
08 Mar 9.8 04:45:41 10° ENE 04:47:29 13° E 04:49:18 10° ESE visible
09 Mar 6.9 05:50:46 10° NNE 05:54:21 72° ESE 05:57:57 10° S visible
10 Mar 8.4 05:24:10 10° NNE 05:27:30 34° E 05:30:50 10° SSE visible
11 Mar 9.6 04:57:58 10° NE 05:00:32 18° E 05:03:07 10° SE visible
12 Mar 6.5 06:03:39 10° N 06:07:16 80° WNW 06:10:54 10° SSW visible
13 Mar 7.7 05:36:55 10° NNE 05:40:26 49° E 05:43:59 10° S visible
14 Mar 9.1 05:10:28 10° NE 05:13:31 25° E 05:16:35 10° SSE visible
15 Mar 9.9 04:44:37 10° ENE 04:46:29 13° E 04:48:21 10° ESE visible
16 Mar 7.0 05:49:40 10° NNE 05:53:19 71° ESE 05:56:58 10° S visible
17 Mar 8.5 05:23:03 10° NNE 05:26:25 34° E 05:29:47 10° SSE visible
